Time,TemperatureF,DewpointF,PressureIn,WindDirection,WindDirectionDegrees,WindSpeedMPH,WindSpeedGustMPH,Humidity,HourlyPrecipIn,Conditions,Clouds,dailyrainin,SoftwareType,DateUTC
2013-02-12 00:11:00,40.8,20.0,29.98,NW,318,16.0,-999.0,44,-99.99,,,0.00,weatherlink.com 1.10,2013-02-12 05:11:00,
2013-02-12 00:26:00,40.3,21.0,30.00,West,261,9.0,-999.0,47,-99.99,,,0.00,weatherlink.com 1.10,2013-02-12 05:26:00,
2013-02-12 00:41:00,39.8,21.0,29.99,NW,312,20.0,-999.0,48,-99.99,,,0.00,weatherlink.com 1.10,2013-02-12 05:41:00,
2013-02-12 00:56:00,39.2,22.0,29.98,NW,312,12.0,-999.0,50,-99.99,,,0.00,weatherlink.com 1.10,2013-02-12 05:56:00,
2013-02-12 01:11:00,38.9,21.0,29.99,NW,311,13.0,-999.0,49,-99.99,,,0.00,weatherlink.com 1.10,2013-02-12 06:11:00,
2013-02-12 01:26:00,38.5,21.0,29.99,NW,311,11.0,-999.0,50,-99.99,,,0.00,weatherlink.com 1.10,2013-02-12 06:26:00,
2013-02-12 01:41:00,37.9,22.0,30.01,WNW,300,10.0,-999.0,52,-99.99,,,0.00,weatherlink.com 1.10,2013-02-12 06:41:00,
2013-02-12 01:56:00,37.5,22.0,30.01,WNW,300,13.0,-999.0,53,-99.99,,,0.00,weatherlink.com 1.10,2013-02-12 06:56:00,
2013-02-12 02:11:00,37.3,21.0,30.01,NNW,346,17.0,-999.0,53,-99.99,,,0.00,weatherlink.com 1.10,2013-02-12 07:11:00,
2013-02-12 02:26:00,37.3,21.0,30.00,WNW,299,15.0,-999.0,53,-99.99,,,0.00,weatherlink.com 1.10,2013-02-12 07:26:00,
2013-02-12 02:41:00,37.3,21.0,30.02,WNW,291,11.0,-999.0,52,-99.99,,,0.00,weatherlink.com 1.10,2013-02-12 07:41:00,
2013-02-12 02:56:00,36.8,21.0,30.02,NW,315,10.0,-999.0,54,-99.99,,,0.00,weatherlink.com 1.10,2013-02-12 07:56:00,
2013-02-12 03:11:00,35.9,22.0,30.04,NNW,329,15.0,-999.0,57,-99.99,,,0.00,weatherlink.com 1.10,2013-02-12 08:11:00,
2013-02-12 03:26:00,35.5,22.0,30.04,WNW,285,4.0,-999.0,58,-99.99,,,0.00,weatherlink.com 1.10,2013-02-12 08:26:00,
2013-02-12 03:41:00,35.0,21.0,30.05,WNW,297,15.0,-999.0,57,-99.99,,,0.00,weatherlink.com 1.10,2013-02-12 08:41:00,
2013-02-12 03:56:00,34.7,21.0,30.05,WNW,300,7.0,-999.0,58,-99.99,,,0.00,weatherlink.com 1.10,2013-02-12 08:56:00,
2013-02-12 04:11:00,34.1,20.0,30.05,NW,311,13.0,-999.0,57,-99.99,,,0.00,weatherlink.com 1.10,2013-02-12 09:11:00,
2013-02-12 04:26:00,34.0,21.0,30.06,NW,314,7.0,-999.0,59,-99.99,,,0.00,weatherlink.com 1.10,2013-02-12 09:26:00,
2013-02-12 04:41:00,33.8,21.0,30.06,NW,325,14.0,-999.0,59,-99.99,,,0.00,weatherlink.com 1.10,2013-02-12 09:41:00,
2013-02-12 04:57:00,33.8,20.0,30.07,NW,314,7.0,-999.0,58,-99.99,,,0.00,weatherlink.com 1.10,2013-02-12 09:57:00,
2013-02-12 05:12:00,33.7,20.0,30.07,NNW,339,9.0,-999.0,58,-99.99,,,0.00,weatherlink.com 1.10,2013-02-12 10:12:00,
2013-02-12 05:27:00,33.7,20.0,30.07,NW,320,19.0,-999.0,58,-99.99,,,0.00,weatherlink.com 1.10,2013-02-12 10:27:00,
2013-02-12 05:42:00,33.4,20.0,30.07,WNW,300,12.0,-999.0,59,-99.99,,,0.00,weatherlink.com 1.10,2013-02-12 10:42:00,
2013-02-12 05:57:00,33.2,20.0,30.08,West,281,10.0,-999.0,58,-99.99,,,0.00,weatherlink.com 1.10,2013-02-12 10:57:00,
2013-02-12 06:12:00,33.1,20.0,30.08,NNW,338,7.0,-999.0,58,-99.99,,,0.00,weatherlink.com 1.10,2013-02-12 11:12:00,
2013-02-12 06:27:00,33.1,19.0,30.08,NW,322,12.0,-999.0,57,-99.99,,,0.00,weatherlink.com 1.10,2013-02-12 11:27:00,
2013-02-12 06:42:00,32.9,19.0,30.09,NW,311,11.0,-999.0,58,-99.99,,,0.00,weatherlink.com 1.10,2013-02-12 11:42:00,
2013-02-12 06:57:00,32.8,19.0,30.09,NNW,333,10.0,-999.0,58,-99.99,,,0.00,weatherlink.com 1.10,2013-02-12 11:57:00,
2013-02-12 07:12:00,32.7,20.0,30.09,NW,321,12.0,-999.0,59,-99.99,,,0.00,weatherlink.com 1.10,2013-02-12 12:12:00,
2013-02-12 07:27:00,32.5,19.0,30.09,WNW,297,10.0,-999.0,58,-99.99,,,0.00,weatherlink.com 1.10,2013-02-12 12:27:00,
2013-02-12 07:42:00,32.5,19.0,30.09,WNW,292,10.0,-999.0,59,-99.99,,,0.00,weatherlink.com 1.10,2013-02-12 12:42:00,
2013-02-12 07:57:00,32.7,19.0,30.10,NW,313,8.0,-999.0,58,-99.99,,,0.00,weatherlink.com 1.10,2013-02-12 12:57:00,
2013-02-12 08:12:00,32.8,19.0,30.10,NW,304,7.0,-999.0,57,-99.99,,,0.00,weatherlink.com 1.10,2013-02-12 13:12:00,
2013-02-12 08:27:00,33.1,19.0,30.11,NW,317,11.0,-999.0,57,-99.99,,,0.00,weatherlink.com 1.10,2013-02-12 13:27:00,
2013-02-12 08:42:00,33.2,19.0,30.11,NW,312,10.0,-999.0,57,-99.99,,,0.00,weatherlink.com 1.10,2013-02-12 13:42:00,
2013-02-12 08:57:00,33.4,19.0,30.11,NNW,328,8.0,-999.0,57,-99.99,,,0.00,weatherlink.com 1.10,2013-02-12 13:57:00,
2013-02-12 09:12:00,33.8,20.0,30.11,WNW,298,3.0,-999.0,58,-99.99,,,0.00,weatherlink.com 1.10,2013-02-12 14:12:00,
2013-02-12 09:27:00,34.0,19.0,30.13,NW,304,6.0,-999.0,54,-99.99,,,0.00,weatherlink.com 1.10,2013-02-12 14:27:00,
2013-02-12 09:42:00,34.6,19.0,30.14,WNW,298,7.0,-999.0,53,-99.99,,,0.00,weatherlink.com 1.10,2013-02-12 14:42:00,
2013-02-12 09:57:00,35.8,20.0,30.14,NW,325,5.0,-999.0,53,-99.99,,,0.00,weatherlink.com 1.10,2013-02-12 14:57:00,
2013-02-12 10:12:00,37.3,19.0,30.14,WNW,294,3.0,-999.0,48,-99.99,,,0.00,weatherlink.com 1.10,2013-02-12 15:12:00,
2013-02-12 10:27:00,38.5,19.0,30.14,NW,326,6.0,-999.0,45,-99.99,,,0.00,weatherlink.com 1.10,2013-02-12 15:27:00,
2013-02-12 10:42:00,39.2,20.0,30.14,WNW,288,10.0,-999.0,47,-99.99,,,0.00,weatherlink.com 1.10,2013-02-12 15:42:00,
2013-02-12 10:57:00,41.3,20.0,30.13,NW,321,8.0,-999.0,42,-99.99,,,0.00,weatherlink.com 1.10,2013-02-12 15:57:00,
2013-02-12 11:12:00,40.5,22.0,30.12,WNW,296,4.0,-999.0,47,-99.99,,,0.00,weatherlink.com 1.10,2013-02-12 16:12:00,
2013-02-12 11:27:00,40.8,20.0,30.12,NW,315,6.0,-999.0,43,-99.99,,,0.00,weatherlink.com 1.10,2013-02-12 16:27:00,
2013-02-12 11:42:00,41.8,20.0,30.11,North,355,3.0,-999.0,42,-99.99,,,0.00,weatherlink.com 1.10,2013-02-12 16:42:00,
2013-02-12 11:57:00,42.8,22.0,30.11,NW,322,2.0,-999.0,44,-99.99,,,0.00,weatherlink.com 1.10,2013-02-12 16:57:00,
2013-02-12 12:12:00,43.3,20.0,30.09,NNW,336,6.0,-999.0,40,-99.99,,,0.00,weatherlink.com 1.10,2013-02-12 17:12:00,
2013-02-12 12:27:00,43.5,17.0,30.04,NW,316,2.0,-999.0,35,-99.99,,,0.00,weatherlink.com 1.10,2013-02-12 17:27:00,
2013-02-12 12:42:00,45.1,16.0,30.05,NW,313,7.0,-999.0,31,-99.99,,,0.00,weatherlink.com 1.10,2013-02-12 17:42:00,
2013-02-12 12:57:00,46.4,16.0,30.07,NW,314,2.0,-999.0,29,-99.99,,,0.00,weatherlink.com 1.10,2013-02-12 17:57:00,
2013-02-12 13:12:00,48.8,18.0,30.07,NW,308,0.0,-999.0,29,-99.99,,,0.00,weatherlink.com 1.10,2013-02-12 18:12:00,
2013-02-12 13:27:00,48.6,17.0,30.07,NW,304,7.0,-999.0,29,-99.99,,,0.00,weatherlink.com 1.10,2013-02-12 18:27:00,
2013-02-12 13:42:00,48.0,16.0,30.08,West,263,2.0,-999.0,28,-99.99,,,0.00,weatherlink.com 1.10,2013-02-12 18:42:00,
2013-02-12 13:57:00,47.9,14.0,30.10,West,281,2.0,-999.0,26,-99.99,,,0.00,weatherlink.com 1.10,2013-02-12 18:57:00,
2013-02-12 14:12:00,48.3,16.0,30.09,West,267,3.0,-999.0,27,-99.99,,,0.00,weatherlink.com 1.10,2013-02-12 19:12:00,
2013-02-12 14:27:00,48.6,15.0,30.07,WNW,301,3.0,-999.0,26,-99.99,,,0.00,weatherlink.com 1.10,2013-02-12 19:27:00,
2013-02-12 14:43:00,48.9,11.0,30.08,West,268,3.0,-999.0,22,-99.99,,,0.00,weatherlink.com 1.10,2013-02-12 19:43:00,
2013-02-12 14:58:00,48.9,12.0,30.08,NW,315,3.0,-999.0,23,-99.99,,,0.00,weatherlink.com 1.10,2013-02-12 19:58:00,
2013-02-12 15:13:00,48.6,14.0,30.06,WNW,287,3.0,-999.0,25,-99.99,,,0.00,weatherlink.com 1.10,2013-02-12 20:13:00,
2013-02-12 15:28:00,47.7,13.0,30.04,West,268,1.0,-999.0,25,-99.99,,,0.00,weatherlink.com 1.10,2013-02-12 20:28:00,
2013-02-12 15:43:00,47.4,14.0,30.07,West,268,0.0,-999.0,26,-99.99,,,0.00,weatherlink.com 1.10,2013-02-12 20:43:00,
2013-02-12 15:58:00,47.1,15.0,30.10,West,265,2.0,-999.0,28,-99.99,,,0.00,weatherlink.com 1.10,2013-02-12 20:58:00,
2013-02-12 16:13:00,46.2,15.0,30.10,West,279,2.0,-999.0,29,-99.99,,,0.00,weatherlink.com 1.10,2013-02-12 21:13:00,
2013-02-12 16:43:00,45.2,13.0,30.09,WNW,284,2.0,-999.0,27,-99.99,,,0.00,weatherlink.com 1.10,2013-02-12 21:43:00,
2013-02-12 16:58:00,45.1,13.0,30.07,NNW,327,3.0,-999.0,27,-99.99,,,0.00,weatherlink.com 1.10,2013-02-12 21:58:00,
2013-02-12 17:13:00,44.8,14.0,30.07,NNW,335,2.0,-999.0,29,-99.99,,,0.00,weatherlink.com 1.10,2013-02-12 22:13:00,
2013-02-12 17:28:00,43.9,13.0,30.10,NW,306,1.0,-999.0,29,-99.99,,,0.00,weatherlink.com 1.10,2013-02-12 22:28:00,
2013-02-12 17:43:00,43.2,15.0,30.10,NW,324,0.0,-999.0,32,-99.99,,,0.00,weatherlink.com 1.10,2013-02-12 22:43:00,
2013-02-12 17:58:00,42.6,15.0,30.09,NW,323,2.0,-999.0,33,-99.99,,,0.00,weatherlink.com 1.10,2013-02-12 22:58:00,
2013-02-12 18:14:00,42.1,15.0,30.08,WNW,286,2.0,-999.0,34,-99.99,,,0.00,weatherlink.com 1.10,2013-02-12 23:14:00,
2013-02-12 18:29:00,41.3,17.0,30.09,WNW,296,1.0,-999.0,37,-99.99,,,0.00,weatherlink.com 1.10,2013-02-12 23:29:00,
2013-02-12 18:44:00,41.3,15.0,30.07,WNW,298,1.0,-999.0,35,-99.99,,,0.00,weatherlink.com 1.10,2013-02-12 23:44:00,
2013-02-12 18:59:00,41.1,16.0,30.06,WNW,298,0.0,-999.0,36,-99.99,,,0.00,weatherlink.com 1.10,2013-02-12 23:59:00,
2013-02-12 19:14:00,40.9,17.0,30.05,WNW,298,0.0,-999.0,38,-99.99,,,0.00,weatherlink.com 1.10,2013-02-13 00:14:00,
2013-02-12 19:29:00,40.6,17.0,30.04,WNW,298,1.0,-999.0,39,-99.99,,,0.00,weatherlink.com 1.10,2013-02-13 00:29:00,
2013-02-12 19:44:00,40.2,18.0,30.05,WNW,298,3.0,-999.0,41,-99.99,,,0.00,weatherlink.com 1.10,2013-02-13 00:44:00,
2013-02-12 19:59:00,39.8,19.0,30.08,WNW,298,0.0,-999.0,44,-99.99,,,0.00,weatherlink.com 1.10,2013-02-13 00:59:00,
2013-02-12 20:14:00,39.9,20.0,30.09,WNW,298,2.0,-999.0,45,-99.99,,,0.00,weatherlink.com 1.10,2013-02-13 01:14:00,
2013-02-12 20:29:00,39.8,20.0,30.10,WNW,298,1.0,-999.0,46,-99.99,,,0.00,weatherlink.com 1.10,2013-02-13 01:29:00,
2013-02-12 20:44:00,39.8,18.0,30.10,South,172,1.0,-999.0,42,-99.99,,,0.00,weatherlink.com 1.10,2013-02-13 01:44:00,
2013-02-12 20:59:00,40.1,16.0,30.10,South,179,3.0,-999.0,38,-99.99,,,0.00,weatherlink.com 1.10,2013-02-13 01:59:00,
2013-02-12 21:14:00,41.5,19.0,30.08,ESE,122,1.0,-999.0,41,-99.99,,,0.00,weatherlink.com 1.10,2013-02-13 02:14:00,
2013-02-12 21:29:00,41.5,17.0,30.08,WNW,286,0.0,-999.0,37,-99.99,,,0.00,weatherlink.com 1.10,2013-02-13 02:29:00,
2013-02-12 21:45:00,40.9,19.0,30.06,WNW,286,0.0,-999.0,42,-99.99,,,0.00,weatherlink.com 1.10,2013-02-13 02:45:00,
2013-02-12 22:00:00,40.8,27.0,30.05,WNW,286,1.0,-999.0,58,-99.99,,,0.00,weatherlink.com 1.10,2013-02-13 03:00:00,
2013-02-12 22:15:00,40.2,25.0,30.05,South,169,2.0,-999.0,56,-99.99,,,0.00,weatherlink.com 1.10,2013-02-13 03:15:00,
2013-02-12 22:30:00,38.0,28.0,30.05,East,101,0.0,-999.0,67,-99.99,,,0.00,weatherlink.com 1.10,2013-02-13 03:30:00,
2013-02-12 22:45:00,36.6,30.0,30.04,East,98,0.0,-999.0,77,-99.99,,,0.00,weatherlink.com 1.10,2013-02-13 03:45:00,
2013-02-12 23:00:00,35.2,31.0,30.05,East,98,0.0,-999.0,83,-99.99,,,0.00,weatherlink.com 1.10,2013-02-13 04:00:00,
2013-02-12 23:15:00,34.3,31.0,30.05,East,98,0.0,-999.0,86,-99.99,,,0.00,weatherlink.com 1.10,2013-02-13 04:15:00,
2013-02-12 23:30:00,33.8,31.0,30.02,East,98,0.0,-999.0,89,-99.99,,,0.00,weatherlink.com 1.10,2013-02-13 04:30:00,
2013-02-12 23:45:00,33.5,31.0,30.00,East,98,0.0,-999.0,90,-99.99,,,0.00,weatherlink.com 1.10,2013-02-13 04:45:00,